Location: Zlin
(49.2330°N, 17.6670°E)
Time: 01:22:39
(UTC+01:00)

ISS - Visible Passes

Search period start: 23 January 2018 00:00
Search period end: 02 February 2018 00:00
Orbit: 402 x 407 km, 51.6° (Epoch: 23 January)

Date Brightness Start Highest point End Pass type
(mag) Time Alt. Az. Time Alt. Az. Time Alt. Az.
25 Jan -1.3 18:13:08 10° SSE 18:13:41 11° SSE 18:13:41 11° SSE visible
26 Jan -1.8 18:55:05 10° SW 18:56:30 21° SSW 18:56:30 21° SSW visible
27 Jan -2.3 18:03:18 10° SSW 18:05:55 23° SE 18:06:34 21° SE visible
27 Jan -0.6 19:38:51 10° WSW 19:39:14 13° WSW 19:39:14 13° WSW visible
28 Jan -1.6 17:12:00 10° S 17:13:48 14° SE 17:15:38 10° ESE visible
28 Jan -3.2 18:46:33 10° WSW 18:49:12 51° SSW 18:49:12 51° SSW visible
29 Jan -3.2 17:54:24 10° SW 17:57:30 42° SSE 17:59:06 23° E visible
29 Jan -1.0 19:30:41 10° W 19:31:46 19° W 19:31:46 19° W visible
30 Jan -3.9 18:38:14 10° WSW 18:41:31 80° NNW 18:41:37 78° NNE visible
31 Jan -3.8 17:45:53 10° WSW 17:49:08 75° SSE 17:51:24 18° ENE visible
31 Jan -1.5 19:22:31 10° W 19:24:03 25° WNW 19:24:03 25° WNW visible
01 Feb -3.6 18:30:01 10° W 18:33:16 59° N 18:33:49 50° NE visible
